[[{"header":{"parameterUnit":"m.s-1","parameterCategory":1,"la1":30.2991,"la2":30.254,"lo1":-89.0895,"lo2":-89.0444,"dy":0.0017,"dx":0.0017,"nx":28,"ny":28,"refTime":"2024-06-12T09:00:00:Z","depth":0,"parameterNumber":2,"parameterNumberName":"U-component_of_WINDS"},"data":[0,0,0,0,0,0,0,0,0,0,0,0,0,0,0,0,0,0,0,0,0,0,0,0,0,0,0,0,0,0,0,0,0,0,0,0,0,0,0,0,0,0,0,0,0,0,0,0,0,0,0,0,0,0,0,0,0,0,-2.0612,-2.0612,0,-2.0676,-2.0677,-2.0677,-2.0595,-2.0592,-2.0589,-2.0586,-2.0654,-2.0659,-2.0663,0,0,0,0,0,0,0,0,0,0,0,0,0,-2.0419,-2.0423,-2.0612,-2.0612,-2.0613,-2.0676,-2.0677,-2.0677,-2.0595,-2.0592,-2.0588,-2.0584,-2.0653,-2.0658,-2.0664,0,0,0,0,0,0,0,0,0,0,0,0,0,-2.0495,-2.0425,-2.0611,-2.058,-2.0577,-2.0675,-2.0677,-2.0678,-2.0596,-2.0591,-2.0587,-2.0583,-2.0651,-2.0657,-2.0664,-2.0797,0,0,-2.0685,-2.0688,0,0,0,0,0,0,0,0,-2.0491,-2.0502,-2.0584,-2.0582,-2.058,-2.0623,-2.0634,-2.0718,-2.0597,-2.0589,-2.0586,-2.0581,-2.0647,-2.0654,-2.0676,-2.0801,-2.0803,-2.0686,-2.069,-2.0693,-2.0695,0,0,0,0,0,0,0,-2.0486,-2.0499,-2.0637,-2.0585,-2.0583,-2.0563,-2.0568,-2.0649,-2.0643,-2.0589,-2.0584,-2.0592,-2.0645,-2.067,-2.0677,-2.0804,-2.0686,-2.0692,-2.0696,-2.0699,-2.1041,-2.1046,0,0,0,0,0,0,-2.0484,-2.0495,-2.0635,-2.0639,-2.0523,-2.057,-2.0576,-2.0613,-2.0642,-2.0642,-2.0596,-2.0588,-2.066,-2.0669,-2.0679,-2.0838,-2.0693,-2.07,-2.0704,-2.1036,-2.1042,-2.1048,0,0,0,0,0,0,-2.048,-2.0497,-2.0632,-2.0566,-2.0581,-2.0578,-2.062,-2.0617,-2.0641,-2.0647,-2.0645,-2.0622,-2.0657,-2.067,-2.0769,-2.0839,-2.0703,-2.0709,-2.1031,-2.1038,-2.1045,-2.1156,0,0,0,0,0,0,-2.0475,-2.0496,-2.0547,-2.0567,-2.0585,-2.0721,-2.0625,-2.0622,-2.0653,-2.0644,-2.0671,-2.0671,-2.0654,-2.0759,-2.0775,-2.0846,-2.0715,-2.1024,-2.1034,-2.1043,-2.1146,-2.1166,-2.1183,0,0,0,0,0,-2.0468,-2.0576,-2.055,-2.0567,-2.0648,-2.0725,-2.0735,-2.0713,-2.0659,-2.071,-2.0713,-2.067,-2.0828,-2.0769,-2.0788,-2.0862,-2.102,-2.1031,-2.1042,-2.1137,-2.1162,-2.1183,0,0,0,0,0,0,-2.0565,-2.0578,-2.0549,-2.0666,-2.0695,-2.0711,-2.0774,-2.074,-2.0785,-2.0774,-2.0746,-2.0753,-2.0859,-2.0869,-2.0804,-2.0992,-2.0915,-2.093,-2.0981,-2.1005,-2.1023,-2.1019,-2.072,0,0,0,0,0,-2.0599,-2.066,-2.0668,-2.0771,-2.0786,-2.0778,-2.0811,-2.0791,-2.082,-2.0832,-2.0842,-2.0873,-2.0929,-2.0967,-2.1019,-2.1146,-2.1151,-2.1206,-2.1224,-2.124,-2.1254,-2.1323,-2.1347,-2.1084,-2.1084,-2.1084,0,0,-2.0672,-2.0687,-2.0727,-2.079,-2.081,-2.0875,-2.0789,-2.086,-2.0908,-2.0843,-2.0937,-2.0946,-2.0978,-2.1091,-2.1142,-2.1104,-2.1327,-2.1254,-2.1266,-2.1272,-2.1336,-2.1361,-2.1384,-2.1092,-2.109,-2.1089,0,0,-2.0838,-2.0854,-2.0942,-2.0963,-2.0994,-2.0987,-2.1008,-2.1029,-2.1032,-2.1126,-2.1079,-2.1135,-2.1232,-2.1257,-2.1283,-2.1456,-2.1419,-2.1474,-2.1573,-2.164,-2.1661,-2.1679,-2.1742,-2.1765,-2.1488,-2.1488,-2.1488,0,-2.0925,-2.1019,-2.0991,-2.1066,-2.1096,-2.1039,-2.1128,-2.115,-2.1197,-2.1219,-2.1174,-2.1296,-2.1313,-2.1432,-2.1474,-2.1496,-2.152,-2.1472,-2.166,-2.1678,-2.1694,-2.1755,-2.1778,-2.1494,-2.1494,-2.1493,-2.1492,0,-2.1125,-2.1191,-2.1258,-2.1304,-2.134,-2.1422,-2.1407,-2.1448,-2.1425,-2.1423,-2.152,-2.1538,-2.1593,-2.1619,-2.1598,-2.1736,-2.1711,-2.1664,-2.1587,-2.1727,-2.1783,-2.1806,-2.1504,-2.1502,-2.15,-2.1498,0,0,-2.1355,-2.1384,-2.1409,-2.1429,-2.1458,-2.1509,-2.1588,-2.1641,-2.1677,-2.171,-2.1777,-2.186,-2.1816,-2.1845,-2.1825,-2.1884,-2.2022,-2.183,-2.183,-2.1866,-2.2177,-2.2213,-2.2241,-2.1996,-2.2,-2.2004,-2.2174,0,-2.1522,-2.1658,-2.1635,-2.1768,-2.1829,-2.1774,-2.1843,-2.1869,-2.1869,-2.1921,-2.1921,-2.1981,-2.1918,-2.1935,-2.1991,-2.1994,-2.2084,-2.1981,-2.2059,-2.2062,-2.2055,-2.227,-2.2309,-2.2469,-2.2196,-2.22,-2.2202,0,-2.1736,-2.1777,-2.1915,-2.1934,-2.1959,-2.2022,-2.2068,-2.2118,-2.2146,-2.2142,-2.2174,-2.2143,-2.2222,-2.2142,-2.2251,-2.2181,-2.2211,-2.2217,-2.2223,-2.2232,-2.2143,-2.2286,-2.252,-2.2545,-2.2236,-2.2234,-2.2231,0,-2.1892,-2.1981,-2.2076,-2.2095,-2.2119,-2.2164,-2.2177,-2.22,-2.2233,-2.2274,-2.2295,-2.2345,-2.2373,-2.2412,-2.2396,-2.2338,-2.2509,-2.2426,-2.2509,-2.2509,-2.2549,-2.2547,-2.2793,-2.2565,-2.2565,-2.2564,-2.2564,0,-2.2082,-2.217,-2.2147,-2.2205,-2.2301,-2.2273,-2.237,-2.2375,-2.2396,-2.2455,-2.2411,-2.2467,-2.2441,-2.2496,-2.2483,-2.2576,-2.2589,-2.2588,-2.2585,-2.2594,-2.2594,-2.2615,-2.2605,-2.2571,-2.2569,-2.2568,-2.2567,0,-2.2274,-2.2262,-2.2362,-2.2376,-2.2382,-2.2453,-2.2465,-2.252,-2.2516,-2.2591,-2.2607,-2.2601,-2.2663,-2.265,-2.2718,-2.2709,-2.2827,-2.2808,-2.2818,-2.2814,-2.2898,-2.2891,-2.3168,-2.3203,-2.295,-2.2953,-2.2955,0,-2.2398,-2.2464,-2.2485,-2.2521,-2.2537,-2.2595,-2.2628,-2.2603,-2.264,-2.2676,-2.2727,-2.2785,-2.283,-2.2932,-2.2934,-2.2986,-2.2969,-2.3062,-2.2977,-2.2984,-2.2973,-2.297,-2.2977,-2.308,-2.3083,-2.3086,-2.3087,0,-2.2619,-2.2609,-2.2659,-2.2707,-2.2748,-2.2784,-2.2816,-2.2849,-2.2826,-2.2869,-2.2932,-2.2967,-2.3036,-2.3094,-2.3142,-2.3155,-2.3119,-2.3114,-2.3136,-2.3147,-2.3151,-2.3152,-2.2867,-2.3108,-2.3106,-2.3105,-2.3104,-2.3103,-2.2781,-2.2838,-2.2861,-2.2918,-2.2939,-2.2971,-2.3023,-2.3025,-2.3076,-2.313,-2.3112,-2.3184,-2.3209,-2.3269,-2.3288,-2.3344,-2.3309,-2.3341,-2.3349,-2.3358,-2.3369,-2.314,-2.3352,-2.3352,-2.3351,-2.3351,-2.335,0,-2.3002,-2.3014,-2.3066,-2.3112,-2.3157,-2.3116,-2.315,-2.3191,-2.3254,-2.328,-2.3325,-2.3397,-2.3453,-2.3459,-2.3512,-2.3556,-2.3541,-2.3571,-2.3569,-2.3573,-2.3397,-2.3373,-2.3583,-2.3583,-2.3583,-2.3583,-2.3583,-2.3583,-2.3122,-2.3215,-2.3208,-2.3311,-2.3322,-2.3392,-2.3415,-2.3443,-2.3464,-2.3547,-2.3593,-2.3596,-2.3614,-2.3668,-2.3718,-2.3718,-2.3741,-2.3778,-2.3772,-2.3608,-2.3585,-2.3563,-2.3541,-2.3783,-2.3783,-2.3944,-2.3945,-2.3947]},{"header":{"parameterUnit":"m.s-1","parameterCategory":1,"la1":30.2991,"la2":30.254,"lo1":-89.0895,"lo2":-89.0444,"dy":0.0017,"dx":0.0017,"nx":28,"ny":28,"refTime":"2024-06-12T09:00:00:Z","depth":0,"parameterNumber":3,"parameterNumberName":"V-component_of_WINDS"},"data":[0,0,0,0,0,0,0,0,0,0,0,0,0,0,0,0,0,0,0,0,0,0,0,0,0,0,0,0,0,0,0,0,0,0,0,0,0,0,0,0,0,0,0,0,0,0,0,0,0,0,0,0,0,0,0,0,0,0,-3.6411,-3.6412,0,-3.6451,-3.6451,-3.6452,-3.6406,-3.6404,-3.6403,-3.6401,-3.6438,-3.6441,-3.6444,0,0,0,0,0,0,0,0,0,0,0,0,0,-3.6292,-3.6295,-3.6411,-3.6412,-3.6412,-3.6451,-3.6451,-3.6452,-3.6406,-3.6404,-3.6402,-3.64,-3.6438,-3.6441,-3.6444,0,0,0,0,0,0,0,0,0,0,0,0,0,-3.6339,-3.6296,-3.6411,-3.6394,-3.6393,-3.645,-3.6451,-3.6452,-3.6407,-3.6404,-3.6402,-3.6399,-3.6437,-3.644,-3.6444,-3.6519,0,0,-3.6456,-3.6458,0,0,0,0,0,0,0,0,-3.6336,-3.6343,-3.6396,-3.6395,-3.6394,-3.6421,-3.6423,-3.6474,-3.6407,-3.6401,-3.6401,-3.6398,-3.6434,-3.6438,-3.6451,-3.6521,-3.6523,-3.6456,-3.6459,-3.646,-3.6461,0,0,0,0,0,0,0,-3.6333,-3.6341,-3.6427,-3.6397,-3.6396,-3.6383,-3.6387,-3.6432,-3.6432,-3.6402,-3.6399,-3.6404,-3.6433,-3.6448,-3.6452,-3.6523,-3.6456,-3.646,-3.6462,-3.6464,-3.6655,-3.6657,0,0,0,0,0,0,-3.6332,-3.6339,-3.6425,-3.6428,-3.6359,-3.6388,-3.6392,-3.6415,-3.6431,-3.6431,-3.6406,-3.6402,-3.6442,-3.6447,-3.6453,-3.6541,-3.646,-3.6464,-3.6466,-3.6652,-3.6655,-3.6658,0,0,0,0,0,0,-3.633,-3.6341,-3.6424,-3.6383,-3.6392,-3.6392,-3.6419,-3.6417,-3.6431,-3.6434,-3.6434,-3.6421,-3.644,-3.6447,-3.6503,-3.6542,-3.6466,-3.6469,-3.6649,-3.6653,-3.6657,-3.6718,0,0,0,0,0,0,-3.6327,-3.634,-3.637,-3.6384,-3.6395,-3.6474,-3.6421,-3.642,-3.6438,-3.6433,-3.6448,-3.6448,-3.6439,-3.6497,-3.6507,-3.6546,-3.6472,-3.6645,-3.6651,-3.6655,-3.6713,-3.6724,-3.6734,0,0,0,0,0,-3.6323,-3.6385,-3.6371,-3.6382,-3.6432,-3.6477,-3.6483,-3.6472,-3.6442,-3.6471,-3.6472,-3.6448,-3.6536,-3.6504,-3.6514,-3.6554,-3.6643,-3.6649,-3.6655,-3.6708,-3.6722,-3.6733,0,0,0,0,0,0,-3.6374,-3.6386,-3.6371,-3.644,-3.6458,-3.6469,-3.6505,-3.6487,-3.6513,-3.6506,-3.6491,-3.6494,-3.6553,-3.6559,-3.6523,-3.6627,-3.6584,-3.6593,-3.6621,-3.6634,-3.6644,-3.6641,-3.6475,0,0,0,0,0,-3.6394,-3.6431,-3.6439,-3.6498,-3.6508,-3.6505,-3.6525,-3.6515,-3.6532,-3.6539,-3.6545,-3.6562,-3.6593,-3.6614,-3.6643,-3.6713,-3.6715,-3.6746,-3.6757,-3.6765,-3.6772,-3.6809,-3.6823,-3.6679,-3.6679,-3.6678,0,0,-3.6434,-3.6445,-3.6469,-3.6509,-3.6522,-3.6559,-3.6512,-3.6553,-3.658,-3.6545,-3.6597,-3.6603,-3.662,-3.6683,-3.6711,-3.669,-3.6813,-3.6773,-3.678,-3.6782,-3.6817,-3.683,-3.6843,-3.6683,-3.6682,-3.6681,0,0,-3.6526,-3.6539,-3.659,-3.6604,-3.6623,-3.6621,-3.6633,-3.6647,-3.6649,-3.6702,-3.6676,-3.6707,-3.6762,-3.6775,-3.6789,-3.6886,-3.6864,-3.6896,-3.695,-3.6986,-3.6997,-3.7007,-3.7041,-3.7053,-3.6903,-3.6903,-3.6903,0,-3.6574,-3.663,-3.6618,-3.6661,-3.6679,-3.6649,-3.67,-3.6713,-3.6741,-3.6753,-3.6729,-3.6797,-3.6807,-3.6872,-3.6895,-3.6908,-3.692,-3.6894,-3.6997,-3.7007,-3.7016,-3.7047,-3.706,-3.6907,-3.6907,-3.6906,-3.6906,0,-3.6686,-3.6726,-3.6764,-3.6793,-3.6815,-3.6862,-3.6855,-3.6879,-3.6867,-3.6866,-3.692,-3.6931,-3.6961,-3.6976,-3.6964,-3.7039,-3.7025,-3.6999,-3.6956,-3.7033,-3.7063,-3.7075,-3.6912,-3.6911,-3.691,-3.6909,0,0,-3.6812,-3.6834,-3.6848,-3.686,-3.688,-3.6909,-3.6954,-3.6985,-3.7004,-3.7024,-3.7061,-3.7107,-3.7083,-3.7099,-3.7089,-3.712,-3.7195,-3.709,-3.709,-3.7109,-3.7277,-3.7296,-3.7311,-3.7181,-3.7183,-3.7185,-3.7275,0,-3.6904,-3.6983,-3.6974,-3.7048,-3.7084,-3.7056,-3.7094,-3.711,-3.7111,-3.7139,-3.714,-3.7173,-3.7139,-3.7148,-3.7178,-3.718,-3.7228,-3.7173,-3.7213,-3.7214,-3.7209,-3.7326,-3.7347,-3.7432,-3.7287,-3.7289,-3.729,0,-3.7023,-3.7048,-3.7127,-3.714,-3.7154,-3.719,-3.7216,-3.7245,-3.7261,-3.7259,-3.7277,-3.726,-3.7304,-3.726,-3.7319,-3.7281,-3.7297,-3.73,-3.7303,-3.7305,-3.7257,-3.7331,-3.7459,-3.7471,-3.7309,-3.7307,-3.7306,0,-3.7106,-3.7159,-3.7213,-3.7224,-3.7241,-3.7267,-3.7275,-3.7289,-3.7307,-3.733,-3.7342,-3.7369,-3.7384,-3.7405,-3.7396,-3.7365,-3.7456,-3.7412,-3.7455,-3.7455,-3.7475,-3.7473,-3.7606,-3.7486,-3.7486,-3.7486,-3.7485,0,-3.7209,-3.7258,-3.725,-3.7283,-3.7337,-3.7325,-3.7377,-3.7382,-3.7394,-3.7427,-3.7404,-3.7434,-3.7421,-3.745,-3.7443,-3.7492,-3.7499,-3.7498,-3.7495,-3.75,-3.75,-3.7509,-3.7503,-3.7489,-3.7488,-3.7488,-3.7487,0,-3.7311,-3.7308,-3.7364,-3.7376,-3.738,-3.7419,-3.7428,-3.7458,-3.7457,-3.7498,-3.7507,-3.7505,-3.7538,-3.7531,-3.7568,-3.7563,-3.7624,-3.7615,-3.7619,-3.7617,-3.766,-3.7655,-3.7802,-3.782,-3.769,-3.7691,-3.7692,0,-3.7377,-3.7414,-3.743,-3.745,-3.746,-3.7494,-3.7513,-3.7502,-3.7522,-3.7543,-3.7571,-3.7602,-3.7626,-3.768,-3.7681,-3.7709,-3.7699,-3.7748,-3.7703,-3.7706,-3.7699,-3.7696,-3.77,-3.7757,-3.7759,-3.776,-3.7761,0,-3.7494,-3.7491,-3.752,-3.7548,-3.7572,-3.7593,-3.7613,-3.763,-3.762,-3.7644,-3.7679,-3.7698,-3.7735,-3.7766,-3.7791,-3.7798,-3.7778,-3.7776,-3.7787,-3.7791,-3.7792,-3.7791,-3.7643,-3.7772,-3.7771,-3.777,-3.777,-3.7769,-3.7579,-3.7611,-3.7627,-3.7659,-3.7673,-3.7691,-3.772,-3.7723,-3.7751,-3.7781,-3.7773,-3.7811,-3.7825,-3.7857,-3.7867,-3.7896,-3.7877,-3.7894,-3.7898,-3.7902,-3.7907,-3.7788,-3.7901,-3.79,-3.79,-3.79,-3.7899,0,-3.7695,-3.7704,-3.7734,-3.7762,-3.7787,-3.7767,-3.7787,-3.7809,-3.7844,-3.7859,-3.7884,-3.7923,-3.7952,-3.7956,-3.7983,-3.8006,-3.7997,-3.8013,-3.8011,-3.8013,-3.7922,-3.791,-3.802,-3.802,-3.802,-3.802,-3.802,-3.802,-3.7758,-3.781,-3.7808,-3.7865,-3.7873,-3.7912,-3.7925,-3.7941,-3.7953,-3.7998,-3.8023,-3.8025,-3.8035,-3.8063,-3.8089,-3.8089,-3.81,-3.812,-3.8116,-3.8031,-3.8019,-3.8008,-3.7996,-3.8122,-3.8123,-3.8204,-3.8205,-3.8205]}]]